EDT,Max TemperatureF,Mean TemperatureF,Min TemperatureF,Max Dew PointF,MeanDew PointF,Min DewpointF,Max Humidity, Mean Humidity, Min Humidity, Max Sea Level PressureIn, Mean Sea Level PressureIn, Min Sea Level PressureIn, Max VisibilityMiles, Mean VisibilityMiles, Min VisibilityMiles, Max Wind SpeedMPH, Mean Wind SpeedMPH, Max Gust SpeedMPH,PrecipitationIn, CloudCover, Events, WindDirDegrees
2013-9-1,88,79,70,73,69,68,97,76,55,29.86,29.80,29.76,10,9,7,21,9,25,0.29,7,Rain-Thunderstorm,204
2013-9-2,88,80,72,73,70,64,93,76,59,29.88,29.85,29.81,10,7,1,29,6,37,0.42,4,Rain-Thunderstorm,261
2013-9-3,82,74,65,64,59,54,87,65,42,30.05,29.98,29.88,10,10,10,15,7,21,0.00,2,,11
2013-9-4,84,73,61,61,57,53,90,62,34,30.15,30.11,30.06,10,10,10,7,2,12,0.00,2,,46
2013-9-5,87,76,64,64,61,58,93,65,37,30.19,30.15,30.12,10,9,6,9,1,13,0.00,4,,40
2013-9-6,87,77,66,65,61,57,79,62,44,30.21,30.15,30.08,10,10,9,9,4,15,0.00,2,,57
2013-9-7,87,76,65,68,64,60,87,67,46,30.09,30.03,29.96,10,10,10,13,4,18,0.00,4,,191
2013-9-8,91,82,73,70,68,65,87,67,47,29.99,29.96,29.93,10,9,7,14,3,16,T,6,Rain-Thunderstorm,207
2013-9-9,92,82,71,70,68,66,84,64,44,30.03,30.00,29.96,9,8,6,15,5,24,0.00,3,,179
2013-9-10,93,84,75,73,70,69,82,67,52,30.14,30.10,30.03,10,8,6,18,7,22,0.00,4,,191
2013-9-11,90,81,72,73,71,68,93,74,55,30.17,30.11,30.05,10,7,5,15,7,18,0.03,5,,200
2013-9-12,83,77,71,71,68,62,90,72,54,30.04,29.99,29.91,10,8,2,17,8,21,0.06,4,Rain,278
2013-9-13,73,66,58,61,49,43,84,60,35,30.08,30.03,29.94,10,10,10,23,11,28,0.00,1,,11
2013-9-14,75,63,50,48,45,42,83,58,33,30.17,30.11,30.08,10,10,10,12,5,17,0.00,2,,56
2013-9-15,81,67,52,59,53,46,83,63,42,30.14,30.09,30.04,10,10,10,16,5,21,0.00,4,,198
2013-9-16,75,70,64,62,59,57,78,70,61,30.24,30.16,30.06,10,10,9,14,6,17,T,8,Rain,66
2013-9-17,79,68,57,56,53,50,86,63,39,30.28,30.21,30.13,10,10,9,15,6,22,0.00,6,,76
2013-9-18,79,71,63,67,62,53,84,73,62,30.16,30.11,30.06,10,8,6,16,5,21,T,7,Rain,188
2013-9-19,85,76,67,70,67,65,93,76,59,30.14,30.05,29.98,10,7,5,13,5,16,0.01,4,,176
2013-9-20,87,78,68,72,68,65,97,74,50,29.99,29.89,29.81,10,7,1,18,8,24,1.20,6,Rain,246
2013-9-21,75,67,58,66,58,47,93,67,41,29.88,29.81,29.73,10,8,2,24,8,29,0.65,6,Rain,321
2013-9-22,73,63,53,50,48,45,83,62,41,30.00,29.95,29.88,10,10,10,14,6,18,0.00,0,,22
2013-9-23,75,64,52,51,48,46,77,59,41,30.08,30.02,29.99,10,10,10,14,5,17,0.00,0,,78
2013-9-24,81,68,55,61,55,49,83,66,48,30.05,29.96,29.87,10,10,10,10,4,14,0.00,3,,102
2013-9-25,80,72,64,64,61,58,87,70,52,29.90,29.86,29.83,10,10,10,14,5,22,T,5,,57
2013-9-26,81,70,58,57,53,49,86,61,35,30.05,29.99,29.91,10,10,7,10,4,16,0.00,0,,23
2013-9-27,83,70,57,59,55,51,87,62,36,30.16,30.10,30.06,10,9,5,10,2,13,0.00,1,,98
2013-9-28,83,70,57,60,57,54,93,68,42,30.17,30.11,30.06,10,9,7,13,5,20,0.00,3,,177
2013-9-29,68,64,60,61,59,57,90,79,68,30.08,30.05,30.01,10,9,5,15,6,21,0.04,7,Rain,183
2013-9-30,78,71,64,62,61,59,87,72,56,30.03,30.00,29.95,10,9,7,16,6,21,T,7,Rain,168